Theta_e
332 334 337 339 341 342 344 345 345 346 347 349 348 349 349 349 350 349 352 354 354 352 351 350 347 346 348 348 348 351 351 351 351 351 353 356 357 360 363 364 365 366 366 364 363 370 360 360 364 362 364 364 361 358 362 362 365 365 366 365 365 358 356 357 351 356 343 339 348 341 342 346 349 359 346 342 340 338 338 345 344 346 346 347 348
333 334 336 338 340 342 344 345 348 345 347 347 347 348 349 350 350 351 352 353 353 352 352 352 350 350 348 348 349 349 349 348 348 351 354 357 360 362 363 363 365 365 365 363 367 365 363 362 366 365 364 361 359 363 362 371 363 361 363 361 364 361 356 353 349 346 344 336 334 336 339 340 347 344 342 343 343 340 340 344 344 344 344 346 346
332 334 336 337 340 342 344 345 345 346 347 347 348 349 348 350 351 352 352 353 353 355 355 351 353 353 350 349 349 349 351 351 351 355 358 360 362 363 364 363 364 364 363 367 366 365 366 363 363 365 363 367 366 367 366 360 361 364 362 360 356 358 356 356 353 349 345 341 346 334 327 331 340 347 347 343 341 341 339 339 341 337 339 341 344
330 332 334 336 338 341 344 345 346 346 348 348 349 349 350 353 352 352 352 354 355 359 360 357 361 361 357 349 356 350 350 358 354 356 357 358 359 364 363 362 364 363 362 365 365 365 365 365 364 364 366 366 366 364 365 365 362 362 361 362 361 353 353 348 358 358 352 341 333 337 334 337 332 333 338 344 343 336 337 335 340 338 337 338 345
330 332 333 335 336 340 343 345 347 347 348 348 350 350 354 353 353 354 355 356 357 362 359 360 360 357 357 358 357 355 355 354 352 353 354 357 359 361 361 363 363 361 362 362 366 366 365 364 367 361 363 367 368 363 361 361 363 362 363 363 356 354 353 353 350 354 354 352 348 343 335 331 333 334 339 334 344 340 339 339 342 340 343 343 345
331 332 333 335 336 339 344 344 345 347 348 349 351 352 355 354 356 356 357 358 357 359 359 361 358 354 353 350 347 348 348 349 347 348 351 354 356 360 361 363 363 360 360 363 365 366 364 365 365 362 364 363 362 359 362 361 364 363 364 361 360 357 357 352 348 351 351 361 360 340 339 330 331 337 336 329 346 350 343 339 338 342 346 350 351
332 334 334 335 336 340 343 344 344 347 348 350 351 353 355 356 357 357 358 357 359 361 360 361 357 356 355 351 350 349 347 349 352 351 351 353 356 356 358 360 361 359 360 361 363 366 364 365 366 362 364 364 369 361 362 358 359 357 366 362 361 361 359 351 351 350 351 352 351 346 352 350 351 339 334 343 329 337 343 343 338 340 337 344 343
332 333 334 336 337 340 341 343 344 348 349 350 351 354 354 356 357 357 359 361 361 362 360 359 357 356 355 353 353 352 351 350 351 351 354 356 354 356 356 358 361 359 360 360 363 365 364 364 365 365 368 363 370 367 362 361 363 360 366 365 365 366 362 355 351 353 346 347 355 351 352 353 345 353 353 339 336 333 337 338 344 342 340 339 343
333 333 334 336 337 339 341 342 345 349 350 349 351 353 355 356 357 358 359 359 359 362 360 362 360 356 354 352 351 352 352 353 355 356 353 359 352 353 355 357 360 363 361 363 361 363 366 363 363 365 361 364 369 363 361 359 360 362 363 361 357 357 363 363 356 353 349 347 350 349 352 352 348 345 351 352 343 336 337 337 335 340 342 342 342
334 334 336 337 338 340 341 343 344 347 349 351 352 354 355 355 356 358 357 358 360 362 362 360 361 361 358 356 351 356 355 356 356 354 354 360 352 354 356 356 360 360 361 360 362 360 363 364 362 365 360 364 365 360 360 359 360 363 366 365 363 361 360 361 362 359 354 355 351 356 352 353 350 350 345 344 345 342 334 333 335 333 331 338 347
333 334 336 338 340 341 341 341 342 345 349 350 352 353 354 354 357 356 357 359 360 360 359 356 359 361 356 358 352 354 352 354 353 354 359 355 352 356 356 356 357 359 359 360 361 360 361 364 360 361 360 366 365 361 359 360 357 362 364 366 364 360 359 360 357 355 355 355 347 347 346 350 346 345 344 346 340 341 340 336 333 338 335 337 341
334 334 336 339 339 340 340 340 341 345 348 349 351 352 352 354 356 355 356 356 358 361 359 356 359 360 359 359 353 356 354 353 353 354 357 355 354 355 357 355 357 358 358 358 359 360 361 360 362 360 361 361 361 365 364 363 363 363 363 365 365 365 364 364 355 353 354 353 352 349 348 347 346 344 345 350 345 345 339 336 340 340 340 339 346
334 334 336 338 338 339 339 339 340 345 347 349 351 351 351 352 354 354 354 355 356 360 359 358 359 359 362 358 356 358 356 355 354 356 358 356 357 357 358 356 358 353 358 356 357 357 360 358 358 360 362 361 362 361 362 366 362 363 363 364 364 361 361 363 361 358 355 351 348 347 348 346 349 347 345 345 347 349 343 340 345 340 337 339 343
334 335 336 337 338 339 339 339 340 343 347 349 351 351 351 351 353 353 354 355 356 358 359 358 360 360 362 360 360 361 358 358 358 358 356 356 359 357 356 358 358 354 354 355 356 357 360 361 364 364 362 362 365 362 364 365 365 365 364 363 361 361 364 363 358 353 352 354 353 351 345 344 345 348 347 345 344 344 345 345 342 348 345 341 342
334 334 336 336 338 338 338 339 340 341 346 349 351 351 351 351 353 353 354 356 356 357 357 358 358 362 362 362 363 362 359 358 359 359 357 357 360 358 355 358 360 358 354 356 359 358 358 361 361 364 364 362 365 365 368 366 367 366 366 363 363 365 363 364 361 360 356 353 350 349 354 348 344 347 347 346 345 350 348 348 345 337 338 344 343
334 334 335 336 337 338 338 339 341 342 344 348 350 351 351 352 353 354 355 356 357 357 356 356 357 361 360 362 362 364 365 360 361 363 358 358 356 357 358 358 360 359 361 361 362 360 358 360 362 363 363 365 365 365 364 364 366 365 365 364 359 367 364 364 362 362 359 357 353 355 348 344 347 351 353 349 350 353 357 355 354 344 338 335 341
335 334 334 336 337 337 338 339 341 342 343 346 349 351 351 353 353 354 355 357 357 358 356 356 358 361 360 363 361 362 362 360 359 360 359 360 356 358 359 360 361 360 363 362 363 361 361 360 359 361 362 362 363 363 364 364 363 362 363 362 362 366 365 364 364 361 359 358 357 358 352 350 348 353 352 353 355 360 358 354 348 351 344 339 338
335 335 335 337 337 337 338 339 342 342 343 347 350 352 353 354 355 354 355 354 356 357 357 357 359 359 360 360 360 360 360 359 358 356 358 359 359 360 361 360 361 360 361 359 362 361 363 370 358 361 362 361 362 362 362 365 364 363 363 363 364 367 365 365 365 365 362 361 360 357 355 353 359 357 355 352 357 362 359 358 359 360 353 344 342
334 334 336 336 337 336 338 338 341 343 344 349 351 353 354 354 356 355 355 355 356 356 357 358 359 359 360 360 359 358 358 357 358 358 358 357 358 359 357 359 360 358 359 360 361 361 363 363 361 363 361 361 362 360 360 363 365 362 362 362 364 364 361 361 362 364 363 361 358 357 360 361 358 358 359 357 358 360 360 356 359 360 360 357 350
334 334 336 336 337 337 339 338 340 342 345 348 350 353 353 354 356 355 357 356 355 354 356 356 357 357 358 359 360 359 358 357 358 356 356 356 357 358 357 358 358 358 359 361 359 360 362 361 363 361 360 361 362 361 360 362 365 362 361 364 363 363 362 360 361 361 362 363 361 361 361 360 362 361 358 356 355 356 361 353 357 359 358 358 357
333 334 336 336 336 337 339 340 342 343 346 348 349 351 353 353 354 354 354 355 353 354 354 355 356 354 356 356 358 358 359 358 357 356 354 354 355 358 357 357 357 356 356 356 358 358 361 359 360 360 359 358 359 359 360 361 363 361 360 362 362 362 361 360 362 361 361 361 363 359 359 362 362 356 355 357 356 354 355 355 358 359 357 361 358
333 334 336 335 336 337 339 342 344 342 344 345 347 350 350 351 354 354 354 354 353 352 353 354 354 353 354 354 356 358 357 357 354 355 355 354 355 356 357 356 356 356 357 356 357 359 361 358 359 359 357 358 360 359 360 363 360 361 361 362 364 363 362 362 361 360 362 362 360 359 360 359 359 359 357 355 354 353 354 353 356 355 350 353 359
333 334 335 336 336 336 338 342 342 341 342 343 344 348 349 350 352 352 353 351 353 351 353 353 352 352 353 353 353 355 356 356 354 354 355 355 355 355 358 355 355 355 358 357 357 356 360 358 357 356 357 357 359 360 360 360 361 360 360 360 359 362 363 362 361 359 359 360 359 357 359 359 360 356 357 357 360 355 354 351 351 352 350 349 356
343 333 334 334 336 336 338 341 341 341 341 341 343 346 347 349 350 350 351 350 351 350 352 352 352 351 351 351 352 352 354 355 353 353 354 354 354 355 357 355 355 355 355 357 356 355 358 358 357 361 356 359 361 361 360 362 362 362 361 360 360 363 363 361 359 358 359 357 356 356 357 356 355 357 355 355 355 354 352 351 355 352 354 353 352
339 344 334 333 334 334 336 340 340 341 342 345 345 345 347 348 348 349 350 351 351 350 351 351 352 350 349 349 351 351 350 351 353 353 353 354 353 354 356 355 354 354 355 356 357 356 357 358 357 358 361 359 359 362 361 360 360 361 362 362 361 359 360 359 358 358 367 358 357 356 356 356 355 354 354 353 353 350 353 355 352 352 355 356 355
340 342 340 335 333 335 338 339 342 342 343 346 349 349 349 347 348 349 348 351 349 350 350 350 350 349 349 348 348 348 348 348 348 351 353 353 352 352 354 355 354 353 354 355 355 355 358 357 356 356 358 359 360 361 360 359 358 359 360 361 360 361 360 359 359 358 356 355 352 351 352 351 349 346 347 349 350 350 349 344 343 342 342 351 346
338 340 342 341 340 337 337 340 342 343 348 347 350 350 351 348 349 349 348 350 348 350 350 350 349 348 349 349 348 347 347 348 348 346 347 352 351 351 353 353 354 352 353 353 356 354 359 357 357 359 360 361 361 361 361 361 360 360 359 360 358 358 358 359 358 357 356 354 353 352 352 352 351 349 348 347 348 348 349 344 347 350 352 348 348
340 341 343 340 340 342 341 343 346 347 348 347 349 351 352 350 348 351 348 350 350 351 351 350 348 349 350 351 351 349 347 347 347 347 346 345 349 351 351 352 354 353 353 353 352 352 358 359 360 360 360 362 361 360 362 362 362 361 362 359 359 358 355 354 353 353 353 352 351 352 352 352 352 351 350 349 349 347 349 349 353 354 354 352 351
343 343 343 342 341 342 341 343 347 349 349 345 346 350 354 357 352 353 351 349 352 351 352 349 349 350 350 350 351 351 353 354 356 347 346 349 351 347 350 351 352 352 352 351 353 354 354 355 360 358 356 359 362 362 363 363 362 363 362 359 357 357 356 353 352 352 350 350 350 347 344 341 350 364 365 363 360 357 349 346 350 349 351 349 350
342 345 347 346 342 343 341 342 346 346 344 345 346 346 347 347 347 349 355 354 354 351 354 350 349 351 351 350 351 351 352 356 356 353 347 348 349 357 352 350 351 350 349 350 351 353 351 350 352 353 357 357 358 362 362 363 369 361 357 357 355 354 355 353 353 352 352 349 347 346 348 361 361 361 364 371 369 365 365 354 348 352 349 347 347
339 338 339 342 344 344 344 344 345 344 343 343 344 345 346 346 347 349 349 350 349 346 353 351 350 355 355 353 352 352 353 355 356 356 356 358 360 361 358 359 356 349 348 350 348 349 349 351 351 351 352 353 349 344 344 335 339 353 363 355 354 354 355 358 358 353 351 351 350 349 349 356 362 367 363 368 368 366 367 366 365 367 363 351 348
338 339 338 339 339 340 339 342 344 343 344 344 343 346 346 346 348 348 350 354 351 348 349 351 353 353 357 357 354 354 354 356 358 358 358 358 360 360 359 358 358 357 358 353 351 350 351 352 348 347 346 343 339 335 330 333 337 341 353 359 356 352 353 352 353 352 351 349 348 349 349 349 355 359 356 356 361 369 366 365 362 362 361 362 359
337 337 337 339 338 339 339 343 342 341 343 345 345 345 346 346 346 348 351 350 350 348 348 350 352 351 352 353 356 360 358 351 347 347 349 351 358 359 354 352 352 354 353 354 358 354 352 349 345 344 344 342 335 328 327 330 332 332 336 357 355 353 349 348 348 349 347 346 350 354 354 357 359 365 357 354 353 356 363 363 361 362 361 357 345
337 337 338 339 340 340 341 343 345 347 348 349 351 350 350 347 345 347 348 351 344 343 348 351 350 350 349 351 350 350 347 347 347 347 347 347 345 345 348 347 347 348 349 351 358 356 354 351 348 344 339 334 331 326 324 326 327 329 334 346 354 353 351 350 350 349 351 354 356 354 354 355 351 347 348 350 350 352 356 359 358 355 355 359 360
335 336 338 337 339 339 339 341 343 346 346 346 346 350 350 350 348 349 351 349 345 344 345 346 345 350 351 352 350 346 346 348 347 347 346 347 346 346 347 348 348 347 347 348 352 353 352 353 349 341 334 330 326 321 322 323 323 326 330 350 354 356 355 354 354 352 356 357 357 359 355 353 345 343 345 348 347 350 355 358 357 357 357 359 356
333 333 334 336 336 337 338 340 344 343 343 343 343 346 347 346 347 348 347 347 346 345 344 344 344 347 350 351 351 347 348 347 347 347 347 347 347 348 348 347 347 347 346 348 352 353 352 352 350 340 333 329 326 319 320 320 321 323 336 354 354 354 354 355 355 357 358 358 358 357 355 347 341 338 339 331 339 350 355 355 355 355 355 356 355
334 335 335 336 336 336 338 338 338 338 339 341 344 344 344 343 341 342 343 343 343 342 344 347 347 348 351 352 351 349 347 346 347 349 350 351 350 349 347 348 345 346 348 348 349 349 349 350 348 340 334 330 328 321 317 317 318 319 336 350 353 355 355 354 354 356 358 357 356 352 349 347 342 338 332 323 328 351 351 351 350 351 353 354 356
335 336 337 337 337 337 336 334 333 333 334 335 336 337 336 335 337 339 339 339 339 340 343 344 344 346 348 349 349 347 345 345 346 349 349 348 349 349 349 351 347 346 346 346 346 345 347 347 343 339 335 332 329 323 315 314 315 317 335 343 348 354 354 352 353 355 355 355 358 361 353 344 341 337 324 322 324 343 346 347 348 347 347 348 350
336 335 334 334 334 334 333 333 332 332 333 334 333 334 333 333 334 334 334 334 334 336 339 341 343 345 346 347 347 347 345 345 344 344 346 346 345 344 346 345 345 345 346 346 346 344 343 342 342 341 341 335 333 328 315 314 314 315 329 337 344 349 351 351 353 352 354 352 347 350 350 342 339 329 318 319 323 337 342 345 345 345 344 345 345
334 335 334 333 333 331 329 330 329 329 332 333 334 333 332 330 330 331 331 332 334 335 338 339 340 341 342 343 345 346 345 343 343 343 344 344 345 344 344 345 345 346 345 346 346 344 341 340 341 340 339 336 333 331 325 313 313 315 318 336 343 346 347 349 352 354 353 349 342 340 339 325 321 319 315 313 316 320 332 339 342 344 344 343 340
333 333 334 332 330 328 327 327 327 329 329 329 329 328 327 328 327 327 328 330 333 336 337 337 337 338 339 339 340 342 344 343 343 343 345 346 345 343 343 344 344 345 345 343 343 342 341 339 338 337 337 338 338 333 327 314 315 316 318 333 337 334 335 340 348 350 348 348 343 340 339 327 317 316 313 311 310 315 323 333 339 341 340 334 333
328 328 327 325 326 325 325 327 328 329 329 328 327 326 325 325 325 325 327 330 332 334 336 337 337 336 336 337 338 339 341 341 342 341 339 341 345 345 346 345 345 344 343 341 341 341 339 335 334 335 336 337 339 338 331 320 315 314 316 325 333 333 332 339 339 344 348 345 339 339 339 331 315 314 310 309 309 312 317 331 337 323 314 319 332
319 320 324 324 323 323 325 326 327 328 328 328 327 325 324 324 323 325 329 331 332 330 332 334 331 330 331 334 337 335 335 337 338 340 339 337 338 340 341 341 340 341 341 340 340 339 336 334 334 334 335 337 338 336 335 331 317 313 313 316 319 327 325 340 334 332 332 335 339 339 341 330 312 307 304 306 309 311 325 330 320 315 315 317 331
320 321 322 325 322 323 324 325 324 325 327 328 329 328 328 325 324 327 327 329 330 332 332 334 333 328 326 327 329 336 333 331 335 336 335 335 336 337 338 339 340 341 339 339 339 337 335 333 333 334 336 335 335 333 335 333 328 317 313 314 317 317 320 328 326 325 326 328 328 328 329 313 305 300 301 306 311 316 322 313 311 313 317 329 331
318 320 324 322 321 321 323 324 326 327 327 328 328 327 327 326 329 332 331 329 329 330 330 329 332 331 330 331 329 329 333 328 331 331 328 333 334 335 333 336 337 334 334 333 335 337 337 335 335 335 331 331 333 331 332 334 335 332 319 316 318 321 318 318 323 323 326 324 319 313 311 311 313 312 312 313 318 323 317 314 314 316 333 331 332
318 321 324 321 321 321 321 322 323 325 326 328 327 326 324 323 327 331 330 330 330 325 323 327 331 330 332 336 337 336 336 328 332 339 337 333 335 336 334 332 333 332 331 330 332 331 334 335 335 334 333 332 332 327 323 323 329 330 327 321 319 323 330 328 326 321 321 318 317 317 319 320 322 325 332 332 332 334 332 330 328 334 333 328 330
319 325 324 321 321 320 320 320 319 321 322 325 325 326 325 325 325 326 326 328 330 330 330 327 325 326 326 328 328 335 333 334 334 335 336 335 330 327 328 328 327 326 327 328 326 328 326 326 330 332 328 324 321 319 318 317 318 320 320 320 319 319 325 323 319 316 317 316 323 329 326 321 321 325 326 328 329 331 331 328 327 330 334 323 328
324 323 324 324 324 323 323 323 322 322 322 322 323 323 326 325 323 323 325 326 327 326 321 321 322 327 329 330 327 333 326 322 323 323 324 323 322 322 320 321 322 322 321 321 323 324 322 323 323 323 321 318 315 314 313 313 313 315 317 316 316 316 314 315 312 310 310 317 322 328 327 333 333 332 332 331 326 330 332 333 325 322 324 329 332
321 322 324 322 322 321 321 322 322 323 323 325 325 325 325 323 325 327 327 325 325 323 325 323 326 325 323 326 327 327 323 319 318 317 315 315 319 320 318 317 319 320 322 321 322 322 321 318 318 319 319 317 317 314 314 306 309 304 309 313 312 310 309 312 312 306 315 319 321 324 326 326 326 326 322 320 320 321 322 322 323 322 321 322 321
324 324 324 324 324 321 321 321 321 322 322 322 323 325 326 327 326 326 325 324 325 326 326 323 326 326 328 329 330 328 329 325 319 317 316 316 312 302 309 317 316 315 309 311 314 321 321 317 314 313 314 318 315 316 306 298 296 296 296 297 299 296 298 304 305 306 317 316 318 321 323 324 326 321 320 320 320 320 320 319 319 322 322 321 319
322 322 321 321 322 324 322 321 320 323 323 324 324 325 325 327 328 327 326 324 324 328 325 326 328 326 327 331 329 327 327 323 321 319 318 318 315 313 298 298 308 308 302 298 299 303 310 314 320 314 311 304 306 301 296 296 296 296 295 295 295 296 295 296 299 311 313 314 318 321 323 322 323 321 320 319 319 319 320 319 318 319 320 320 319
Wind_Speed
10 11 11 12 14 12 12 11 11 12 9 9 9 7 10 11 10 9 7 6 6 6 5 4 4 5 3 3 4 2 4 5 5 6 6 6 6 4 4 4 3 2 1 0 1 1 4 3 2 3 3 2 1 1 1 0 0 0 1 1 2 3 3 4 3 1 4 3 2 2 2 2 3 4 3 5 5 5 7 7 7 6 6 6 6
11 10 13 12 12 13 12 9 12 13 10 11 9 8 8 10 10 9 7 6 5 6 6 4 4 3 4 5 3 4 4 5 4 5 6 7 6 4 4 4 3 3 1 1 0 2 3 3 1 3 3 2 1 2 2 1 1 2 2 3 0 2 2 3 2 4 2 2 2 1 1 2 3 3 4 3 4 5 4 4 6 8 7 7 6
9 12 13 12 14 14 10 11 11 11 12 12 10 9 8 7 8 8 7 6 6 6 5 5 4 4 4 4 6 3 3 3 3 3 5 6 6 5 4 4 3 4 3 2 2 1 2 3 2 2 4 3 1 1 1 1 0 1 2 1 4 2 3 2 2 3 0 1 1 3 1 0 2 3 3 4 7 9 5 4 6 6 8 7 6
10 13 13 13 13 12 12 11 11 11 10 11 10 10 8 6 7 8 8 6 6 5 4 4 4 4 4 5 3 6 4 4 3 3 5 6 6 4 4 4 4 4 4 3 3 3 3 3 2 2 2 2 1 0 2 0 2 0 1 1 1 3 5 4 0 2 2 5 1 1 1 1 1 3 3 4 2 3 1 7 7 5 5 5 3
10 12 13 13 12 13 13 11 11 10 10 11 10 10 8 9 8 8 7 6 5 4 5 5 5 4 5 5 5 6 5 4 4 3 6 5 5 4 5 5 4 4 5 4 4 3 3 2 2 2 2 2 2 1 1 1 2 1 0 1 2 1 3 2 2 1 2 3 5 1 2 3 1 3 1 2 5 6 6 1 7 6 6 7 6
10 11 12 13 12 13 13 12 11 10 10 10 10 9 9 9 8 7 5 6 6 5 6 5 5 6 6 7 6 5 6 5 6 7 6 6 6 4 4 5 5 4 4 4 4 3 3 2 2 3 2 2 2 1 1 2 3 0 1 0 2 1 0 3 5 6 4 2 1 2 4 1 1 2 4 1 5 2 1 2 2 1 3 4 2
9 9 11 14 12 14 15 13 12 12 10 9 9 10 10 9 8 8 6 6 6 6 6 5 5 5 6 6 6 7 7 4 4 4 6 6 6 6 6 5 4 5 4 4 3 3 3 3 3 3 3 3 0 1 1 1 0 0 1 1 1 3 3 4 3 3 5 4 5 3 2 0 4 2 0 0 3 5 4 3 3 5 2 2 4
10 10 10 13 13 14 16 14 13 12 12 11 10 10 10 10 9 8 6 6 5 6 6 6 6 4 5 5 6 6 7 6 6 5 5 5 7 7 6 5 5 4 5 5 4 3 3 2 3 2 2 2 2 2 2 1 3 2 3 1 2 2 2 1 3 4 3 3 2 4 4 4 2 2 2 3 2 1 5 4 2 6 4 3 1
10 10 10 13 13 13 13 12 14 15 13 11 11 11 10 9 9 7 7 7 6 5 6 6 6 6 5 5 5 5 5 6 6 5 6 4 8 6 6 5 4 4 5 4 4 4 3 2 3 1 1 3 1 2 2 1 1 1 0 3 3 4 3 2 3 4 3 2 4 3 4 4 4 1 1 3 2 1 1 1 2 4 3 3 2
10 12 10 12 12 11 12 11 14 15 13 11 11 11 10 9 9 8 8 8 7 6 6 5 5 5 4 5 7 5 5 4 5 5 4 4 6 6 5 6 4 4 4 4 5 4 3 3 3 3 3 3 2 1 0 1 2 1 1 1 1 3 4 4 4 4 3 4 2 1 2 2 3 2 2 1 0 2 1 1 1 3 3 4 3
9 12 11 11 13 12 13 11 13 13 13 12 12 11 11 10 9 9 8 8 8 7 7 6 4 4 5 3 6 5 7 6 6 5 4 5 6 5 5 5 4 3 4 4 4 5 3 4 4 3 3 2 3 2 2 3 3 2 2 1 0 3 3 4 5 4 4 5 5 3 4 2 1 1 1 1 0 0 2 3 3 2 0 2 3
10 12 12 12 12 11 13 10 12 15 15 13 12 11 11 10 10 9 7 8 7 7 8 7 5 5 4 4 5 5 6 6 7 6 4 5 6 5 5 5 4 4 3 4 4 4 4 4 4 3 4 3 4 4 3 1 2 2 2 1 0 0 2 3 3 4 5 4 3 4 4 5 2 1 1 1 1 2 2 1 0 2 3 1 4
10 11 11 12 12 10 13 10 9 15 14 14 14 12 11 10 11 10 9 8 7 7 8 7 6 6 5 5 5 5 7 7 6 6 5 6 5 5 5 6 4 6 4 6 5 4 5 5 4 3 4 4 3 3 2 2 2 1 2 2 1 1 2 2 2 3 3 4 5 4 5 3 2 2 4 2 0 1 2 1 1 1 1 2 3
9 10 12 13 13 9 11 8 11 13 15 14 14 12 10 10 11 10 10 9 7 7 7 7 6 6 5 6 5 5 7 7 6 6 5 5 5 6 6 5 5 6 5 5 6 4 6 5 3 3 4 4 3 3 3 3 2 2 2 0 0 1 1 2 3 4 4 5 3 4 4 5 5 2 1 3 2 2 1 1 1 2 1 1 2
6 9 10 13 13 13 11 8 12 12 16 15 13 12 11 11 11 11 10 9 8 8 6 6 6 6 5 5 5 5 6 6 6 6 6 5 5 5 5 5 5 5 6 4 5 5 6 4 3 3 4 4 4 3 3 2 2 1 2 1 0 1 1 2 3 2 4 5 4 3 4 4 4 6 1 1 1 2 0 1 1 2 4 3 3
8 10 10 12 12 13 11 9 11 11 14 14 14 13 12 11 11 11 12 11 9 8 7 7 6 5 5 5 5 5 5 5 5 5 5 6 5 5 6 5 5 5 4 5 4 6 6 5 4 3 3 4 3 2 2 3 3 2 1 1 2 1 3 1 3 3 4 4 4 3 3 5 4 4 2 3 2 2 2 1 3 3 1 2 3
9 12 11 11 11 11 10 10 11 11 11 13 14 13 13 12 12 11 10 9 10 9 9 7 6 5 7 6 6 5 6 6 7 6 7 5 6 5 5 5 5 5 4 4 3 5 6 6 5 4 4 4 3 3 3 3 3 2 2 2 2 0 1 0 2 3 3 3 3 0 0 2 5 5 3 2 1 0 0 0 2 3 5 1 1
9 11 11 12 11 11 10 11 12 12 11 12 14 13 13 13 12 12 11 11 10 10 9 8 7 7 7 7 6 6 6 6 6 6 6 5 5 5 4 5 4 5 4 3 4 4 4 5 6 4 5 4 4 4 3 3 4 3 3 3 2 2 1 0 2 3 4 4 4 1 1 3 3 3 3 3 1 1 1 1 1 4 4 1 3
9 11 11 11 12 12 10 12 11 12 10 13 14 13 13 12 12 13 12 12 11 9 8 7 7 7 7 7 7 7 6 5 6 5 5 5 5 5 5 5 4 5 5 4 5 4 4 4 5 4 4 5 4 5 4 3 3 3 2 3 2 2 2 2 3 3 3 4 4 3 2 2 3 4 4 3 3 2 3 1 1 1 1 3 3
10 11 10 12 11 12 11 14 12 13 10 14 14 11 14 13 12 12 10 9 10 10 9 9 8 7 8 6 5 6 6 4 7 6 6 5 6 6 5 6 5 5 5 4 6 5 4 4 4 4 5 4 4 4 5 4 4 4 3 4 4 3 3 3 3 3 4 4 2 1 2 2 3 3 4 4 5 5 1 3 3 2 1 1 2
9 11 9 12 12 11 12 12 12 12 10 13 13 12 13 12 12 13 12 12 12 10 10 9 8 6 7 8 6 7 4 5 6 6 6 5 5 5 6 6 5 5 5 4 5 5 5 4 3 3 4 5 4 4 4 4 4 4 4 3 3 3 4 4 3 3 4 2 2 3 3 2 2 3 3 5 5 4 1 3 2 1 1 2 3
9 11 10 11 11 12 10 11 11 12 11 13 13 12 13 11 11 12 11 10 11 9 10 8 9 7 9 9 8 7 6 5 5 5 4 6 5 4 5 5 5 5 6 6 5 4 6 5 5 4 4 5 5 5 5 4 5 3 3 4 3 2 3 3 2 3 4 4 3 3 2 3 3 4 4 4 3 2 0 1 3 4 4 2 2
6 12 11 11 11 12 10 12 12 14 11 12 10 12 12 12 12 10 11 9 10 8 10 8 9 7 8 9 8 7 7 7 6 6 5 5 4 5 4 5 5 4 4 6 5 5 5 6 5 5 5 5 5 5 4 4 5 5 4 4 3 5 4 4 4 4 3 3 3 4 4 4 3 4 4 4 2 3 3 2 3 3 3 3 3
4 7 10 10 10 12 8 11 11 11 9 11 9 12 11 11 12 10 12 10 10 7 10 7 8 8 7 9 7 8 8 8 8 6 7 6 6 7 7 5 5 4 5 4 6 6 6 6 6 4 6 5 5 4 4 4 5 5 5 5 4 3 4 4 5 4 4 4 5 4 5 5 3 3 3 2 3 3 3 4 4 3 2 3 3
1 1 8 9 11 13 9 11 11 10 9 7 9 11 10 12 11 11 12 10 10 7 10 9 7 8 7 8 7 8 8 8 8 7 7 7 4 6 7 7 6 5 5 5 4 3 6 6 7 4 4 3 4 4 3 3 4 4 4 4 4 4 3 3 3 4 4 4 4 4 4 3 2 2 3 3 4 4 2 1 1 1 2 3 2
0 0 4 5 9 9 8 9 8 10 9 7 8 8 9 12 10 11 11 9 10 7 10 9 7 8 7 7 7 6 8 8 7 8 10 8 5 5 6 6 6 7 4 5 6 4 6 7 5 6 5 4 4 4 4 4 4 5 6 5 4 4 4 5 5 5 5 4 4 4 4 4 5 4 5 4 4 4 3 3 3 4 5 2 3
3 3 5 3 3 8 10 9 9 8 8 7 7 8 8 10 9 10 9 9 10 7 10 9 8 8 6 6 8 8 6 8 8 5 6 8 7 6 6 6 4 6 5 5 4 4 4 7 5 5 5 5 5 5 5 5 5 3 4 5 4 5 4 4 4 5 5 6 6 6 6 6 6 6 6 6 6 4 4 4 3 2 1 0 1
2 0 3 3 2 9 10 9 9 8 8 8 6 8 8 9 8 8 9 8 8 7 9 9 8 7 7 6 7 7 6 5 7 6 5 5 8 8 7 7 6 5 6 6 5 5 3 4 5 2 3 5 5 5 5 4 4 3 2 4 4 3 4 4 4 5 5 6 6 7 8 7 7 8 8 6 5 5 4 3 4 3 2 1 0
3 3 3 3 3 6 11 11 10 7 7 8 7 5 5 3 4 4 7 6 7 6 9 8 8 8 7 6 5 4 4 3 3 7 7 3 3 6 9 8 7 7 6 6 6 7 5 2 2 4 5 4 5 4 4 4 5 4 3 3 3 5 5 5 4 4 4 4 3 4 5 4 4 10 12 8 8 8 5 5 4 3 3 1 1
2 2 3 4 3 5 7 9 8 9 9 9 7 7 5 6 6 7 7 9 6 2 7 7 7 7 7 6 6 4 4 2 2 4 6 4 3 4 2 7 8 8 6 6 6 6 6 5 5 5 4 4 4 2 3 4 4 5 4 4 4 4 4 5 5 4 4 4 4 3 2 7 10 9 9 10 14 14 9 6 5 4 3 3 3
4 6 10 5 6 5 6 8 8 8 6 3 5 7 7 5 5 5 6 3 6 9 8 7 5 3 5 6 6 6 5 3 3 3 4 5 4 3 5 4 1 4 7 7 6 7 7 8 8 8 7 2 4 4 6 5 6 8 4 4 5 4 4 3 2 2 3 3 3 4 4 7 6 4 5 14 10 2 4 5 6 6 5 3 3
2 3 4 9 12 12 11 10 9 7 5 4 3 3 4 7 7 6 7 8 7 8 2 3 6 4 4 4 5 7 5 3 4 3 4 3 4 4 5 5 7 6 4 4 4 3 2 0 2 2 6 5 4 8 8 8 7 3 1 2 3 5 4 3 1 2 3 3 5 5 4 4 4 4 5 5 5 6 4 5 6 5 5 5 5
1 4 6 6 7 5 6 6 4 3 2 3 4 5 3 4 6 7 6 5 6 4 4 3 2 3 4 4 4 5 6 7 6 5 5 7 8 9 8 6 6 3 5 7 5 7 7 6 7 7 6 6 4 6 6 7 6 7 7 4 2 2 1 1 1 1 2 3 2 2 3 5 5 10 6 5 4 4 8 8 6 6 5 4 6
6 6 3 4 6 4 4 5 3 5 7 7 3 2 3 3 2 3 5 8 9 9 5 3 3 3 3 3 3 6 7 5 5 5 5 5 7 5 3 2 3 5 6 4 4 5 6 6 6 7 6 5 4 6 6 6 5 5 5 3 2 2 2 3 2 3 3 4 3 3 3 4 5 5 5 5 4 4 4 4 3 2 3 4 6
8 8 7 9 8 5 6 6 6 5 5 6 7 4 0 4 6 5 5 8 9 8 4 3 2 2 5 4 4 4 5 5 5 4 4 2 4 7 6 2 4 3 2 1 2 3 3 4 6 8 6 5 4 6 7 9 9 8 7 3 2 2 2 2 2 2 4 3 3 3 4 4 4 5 5 6 5 5 4 4 4 5 4 3 3
8 10 10 10 9 9 6 5 3 5 7 7 4 5 2 1 2 4 6 5 3 2 3 4 2 2 2 3 5 5 5 6 6 7 6 6 5 5 4 5 5 2 1 1 3 3 3 3 4 7 7 6 3 6 7 8 9 10 8 3 1 2 2 2 3 4 4 4 3 3 4 5 3 3 5 8 7 5 4 4 4 3 3 2 2
8 8 9 9 9 11 7 5 6 8 8 6 2 2 5 7 8 7 8 9 8 8 7 5 3 3 2 0 1 3 3 3 4 5 7 7 6 4 3 3 4 3 2 2 4 3 3 4 5 5 6 5 4 6 8 8 9 10 6 4 3 3 2 3 2 3 4 3 4 4 5 4 3 2 5 6 8 7 3 3 3 3 3 3 1
5 5 7 8 9 9 8 8 9 9 9 8 9 9 10 11 10 8 8 6 6 6 4 4 6 6 6 6 5 4 4 3 2 4 6 6 5 5 5 4 4 3 3 4 4 4 4 4 5 5 5 6 5 5 8 9 8 9 5 2 3 2 2 2 2 3 4 4 5 11 7 4 3 2 5 6 8 5 2 2 2 2 2 3 1
6 8 9 9 8 9 10 10 10 11 9 9 9 9 10 9 9 9 8 7 7 6 5 6 6 6 7 6 4 5 5 4 4 5 4 7 6 6 4 3 5 5 5 4 5 5 5 5 5 6 9 7 5 4 7 7 7 7 5 2 3 2 0 1 2 2 3 5 5 7 9 6 4 3 4 5 6 5 2 2 2 2 2 2 2
9 9 8 7 7 9 10 9 10 9 8 8 8 10 10 9 8 9 10 9 7 5 5 7 7 8 8 7 7 6 5 5 4 5 4 3 4 4 5 5 4 5 6 5 4 4 6 5 4 5 5 6 5 4 4 5 6 7 6 3 3 2 2 1 2 3 4 5 5 4 4 6 5 4 4 5 5 6 3 3 2 2 2 2 4
10 9 7 7 6 7 7 9 7 7 8 8 8 10 10 9 9 10 10 7 6 5 7 8 7 8 8 7 8 6 5 6 5 4 4 4 4 5 3 2 3 4 5 6 6 5 5 4 4 4 4 4 4 5 4 4 7 10 9 7 5 5 3 3 2 1 3 3 4 3 2 3 4 4 4 4 5 5 4 3 3 2 2 3 3
10 10 8 8 7 7 7 7 6 8 8 7 8 10 10 9 10 10 7 6 6 5 5 8 9 8 8 8 7 8 8 7 7 6 5 3 4 4 3 4 3 5 6 7 6 5 5 5 4 4 3 3 5 7 5 3 7 8 7 8 5 2 2 0 4 4 2 4 4 2 2 2 3 3 4 5 7 6 6 3 4 4 7 7 5
8 9 8 8 6 7 8 8 7 6 5 5 7 9 9 9 10 7 5 5 6 7 6 8 10 10 9 8 8 9 8 7 8 7 5 5 5 4 4 4 6 5 5 5 4 6 6 5 3 2 2 2 2 4 5 4 4 6 8 8 8 6 8 6 8 8 6 5 4 3 2 4 5 6 5 6 6 8 6 4 6 7 8 7 5
7 7 7 9 9 8 8 6 6 5 5 4 5 7 7 8 8 5 5 4 4 4 5 6 7 7 8 8 8 6 6 7 7 8 7 6 5 5 4 2 2 4 3 4 2 4 4 5 4 4 2 2 3 3 5 6 4 7 10 12 14 15 13 7 7 6 5 4 3 3 3 4 5 6 4 5 7 6 7 11 10 9 8 6 3
6 6 5 6 8 8 7 6 4 4 3 4 4 7 7 6 3 3 4 5 5 5 4 5 4 4 4 3 6 4 3 6 3 7 8 5 4 3 4 4 4 7 6 5 2 1 4 6 6 6 4 4 3 4 5 7 12 12 13 14 14 14 13 11 7 5 4 4 5 7 7 7 7 7 6 5 5 7 10 10 10 9 7 3 4
4 4 5 6 6 6 6 6 5 4 5 4 4 4 6 4 4 4 3 3 5 7 7 5 3 3 2 3 2 2 2 7 4 2 3 3 3 5 6 6 5 6 6 7 7 6 4 1 6 6 5 4 5 5 6 6 7 9 9 12 13 13 13 12 10 7 9 10 11 10 9 10 10 7 4 3 2 4 6 9 9 7 3 4 3
4 3 6 6 5 6 5 5 5 3 3 3 3 3 3 3 4 3 5 6 4 4 4 0 4 5 3 3 3 1 3 2 2 2 2 5 5 5 6 6 6 6 8 7 6 5 6 7 7 6 7 6 6 5 6 6 6 6 6 7 8 8 11 11 9 7 9 8 9 8 8 9 8 11 9 7 8 7 5 5 3 4 3 4 9
5 6 6 6 6 6 5 5 4 3 3 3 3 3 2 2 3 3 3 3 4 4 4 3 2 3 2 3 6 12 9 5 6 6 6 7 5 5 7 7 6 5 6 7 6 5 6 6 7 6 5 5 5 5 4 5 5 5 5 5 5 5 6 5 6 7 7 6 5 7 8 6 6 7 5 5 5 3 1 4 5 7 8 8 9
7 6 6 7 5 5 5 5 4 2 2 1 3 4 5 5 3 3 3 3 3 3 2 2 3 4 3 3 6 7 7 7 7 8 7 6 5 5 7 5 4 3 4 6 6 6 5 5 5 5 5 5 3 3 2 2 3 4 4 4 5 4 4 3 4 7 6 5 5 6 7 7 6 3 4 7 7 7 7 6 8 7 7 7 7
5 6 7 6 5 5 4 4 4 4 4 3 2 3 3 3 3 3 3 2 1 2 3 4 5 5 4 4 5 5 7 7 7 7 7 8 10 11 8 4 3 5 8 7 6 6 5 6 7 4 3 3 4 3 3 1 2 1 4 6 4 3 2 3 7 8 2 3 4 5 5 6 5 6 7 6 6 6 6 7 6 7 7 7 7
5 6 6 5 4 4 4 3 3 3 3 3 3 3 3 3 3 3 3 3 2 1 3 4 4 4 4 4 4 6 7 6 6 6 7 8 5 7 12 13 9 6 6 9 11 9 8 8 9 6 5 9 7 7 5 4 1 2 2 3 2 1 2 3 8 9 5 5 5 6 6 6 4 5 5 5 5 6 5 5 5 6 6 6 6
Wind_Direction
148 148 135 131 133 134 131 139 135 134 139 136 132 124 131 133 138 142 145 144 141 137 142 147 141 152 144 143 145 130 105 109 123 134 126 134 140 146 144 144 155 112 105 80 314 38 120 128 142 128 109 131 160 215 224 242 178 237 297 309 318 339 312 321 275 144 82 53 28 158 236 251 217 236 228 249 247 195 205 152 171 177 193 199 206
147 139 139 135 135 133 134 132 130 134 139 141 139 135 134 137 136 140 141 150 149 151 157 151 159 166 153 159 152 135 121 116 123 130 135 139 142 151 145 151 155 140 162 228 306 111 111 131 138 139 146 159 190 236 219 215 30 6 6 340 336 303 279 280 309 67 21 133 130 302 332 308 272 269 269 275 273 265 209 150 155 178 178 203 203
159 142 141 140 140 137 129 131 138 137 140 144 144 139 143 139 137 140 148 155 165 169 158 156 166 162 153 158 153 137 143 151 139 148 123 131 141 151 151 153 152 142 174 191 183 176 152 147 181 160 156 171 160 254 129 146 32 354 344 298 329 338 279 252 59 84 162 126 133 88 303 40 323 330 302 238 243 231 210 137 156 161 177 184 191
164 149 147 148 146 133 135 140 144 148 143 144 150 150 149 143 143 147 154 161 167 169 152 140 112 114 136 146 131 132 150 144 143 128 119 127 148 151 145 153 166 159 181 193 180 197 173 164 173 128 155 156 133 41 356 328 179 310 342 349 48 350 1 320 141 172 153 109 44 162 217 132 0 308 293 294 304 117 217 153 163 170 184 195 166
160 152 150 148 145 138 144 144 145 145 143 150 155 154 151 150 149 151 154 155 159 159 140 126 114 99 93 88 95 104 99 117 137 138 142 148 145 147 158 167 176 181 190 184 164 150 137 136 138 150 128 66 68 71 3 278 263 186 101 345 4 41 346 302 302 202 150 156 142 59 0 31 227 248 303 305 3 27 13 163 155 159 175 185 182
160 158 153 148 146 137 142 147 149 146 148 156 158 149 145 149 149 148 151 151 159 153 147 134 136 135 123 123 130 129 137 151 165 166 161 155 162 161 164 184 187 186 189 165 151 139 155 177 191 141 126 103 151 151 8 329 354 26 233 165 314 2 353 23 357 338 354 43 57 173 161 173 228 272 74 339 309 61 343 354 347 171 177 153 124
161 158 151 148 146 140 147 152 157 156 156 157 152 145 150 150 151 154 156 160 156 149 151 142 133 141 143 145 146 147 150 175 177 170 156 162 160 164 175 190 191 173 176 152 156 157 162 178 154 147 147 169 154 77 21 338 198 301 318 10 331 331 31 24 344 316 349 20 6 357 355 29 161 96 294 65 3 318 356 20 352 20 331 145 143
162 162 155 150 149 148 155 158 159 154 155 158 153 150 155 158 154 158 157 152 148 146 150 155 149 155 152 149 150 152 160 171 172 179 177 167 158 161 173 179 190 177 157 162 156 145 137 144 109 107 118 188 161 149 151 308 354 337 334 12 342 353 352 42 342 33 73 306 322 21 18 14 23 67 137 140 158 59 322 339 349 346 28 23 50
166 165 159 153 152 154 157 159 156 154 160 162 154 155 156 159 156 157 150 149 153 158 154 156 160 166 169 158 161 171 169 164 166 172 172 142 152 155 166 171 189 159 155 153 148 149 160 181 142 128 153 85 86 110 89 107 277 251 234 27 356 346 345 346 26 347 29 328 343 350 8 18 354 46 82 74 100 81 306 339 305 316 1 340 353
166 165 159 154 155 156 162 157 160 157 161 157 150 153 157 158 160 158 154 155 161 162 147 150 159 160 166 161 168 164 147 125 137 153 157 135 147 151 151 161 174 144 153 152 146 163 170 170 175 168 182 138 125 158 24 320 286 145 131 154 328 345 337 7 345 326 349 328 18 31 25 349 3 7 39 31 5 110 189 257 282 32 11 296 323
164 165 160 157 157 159 166 170 163 150 152 152 152 157 157 162 161 161 160 158 161 158 150 163 159 150 171 152 157 149 145 132 127 136 123 136 143 147 148 161 167 170 153 162 160 164 179 175 193 189 176 152 143 145 166 234 256 204 188 101 174 23 349 345 350 345 353 338 323 359 298 244 220 308 313 287 139 29 44 339 336 304 275 350 302
166 163 161 153 159 163 168 177 163 145 152 154 154 158 160 163 161 163 162 164 168 157 156 167 168 170 164 162 162 154 149 147 149 150 154 148 147 147 155 159 175 179 166 159 179 174 171 187 208 190 168 157 172 169 175 145 66 75 52 61 40 319 328 334 336 341 338 327 333 321 292 268 182 86 236 160 179 148 145 205 220 322 353 311 292
169 162 158 156 163 172 171 174 155 144 154 154 157 159 162 163 163 162 169 169 172 164 162 172 173 176 165 173 170 152 145 151 155 155 163 158 151 151 155 172 171 184 184 172 188 190 168 195 221 179 156 170 175 150 140 93 98 97 83 359 348 34 329 325 321 302 314 318 318 325 334 10 339 203 102 46 11 65 112 69 276 139 169 302 299
170 159 162 157 166 174 175 168 155 148 155 156 158 158 161 166 165 167 170 168 175 171 171 171 175 173 165 166 166 147 148 155 160 158 166 164 149 162 170 178 172 185 186 185 193 180 170 190 197 169 160 153 161 166 161 157 154 162 114 119 192 285 304 328 304 315 316 313 321 317 329 346 328 342 80 101 61 23 352 179 288 342 29 323 305
177 162 164 162 167 169 180 167 161 158 157 156 159 156 161 163 166 168 168 171 175 176 175 167 170 167 165 155 153 145 151 156 159 160 164 165 158 163 176 186 177 183 187 204 202 160 168 177 184 178 152 161 153 161 165 160 179 133 137 179 238 214 303 295 274 296 315 328 321 338 330 327 320 341 267 219 122 218 153 192 128 341 339 1 352
177 171 163 166 162 167 174 165 162 163 156 155 157 158 162 166 167 169 172 172 175 173 179 169 177 168 158 158 162 153 152 159 163 161 168 167 170 168 180 186 189 184 195 196 193 158 165 170 180 176 158 148 154 153 158 174 186 173 174 195 264 297 269 307 320 340 327 311 309 299 340 318 314 298 332 7 171 205 121 112 115 114 115 334 330
171 170 164 165 163 167 162 161 157 160 158 154 157 162 162 162 168 167 174 173 175 174 174 170 178 162 169 167 166 164 165 158 170 164 172 173 174 179 180 188 183 182 185 178 170 155 158 163 175 169 164 162 159 173 209 180 180 175 194 204 224 234 110 341 319 319 301 309 317 37 203 281 307 304 338 355 302 227 139 91 111 147 154 113 304
166 166 164 164 163 166 158 162 158 161 157 150 157 161 162 163 168 168 171 176 179 171 173 176 175 170 172 173 174 175 176 163 166 167 165 164 170 181 173 175 173 177 175 183 161 160 153 155 173 181 168 171 171 188 202 191 172 187 197 204 214 153 165 333 297 293 299 305 304 275 294 279 276 340 331 342 291 321 50 23 143 151 147 150 177
163 164 162 167 162 167 159 166 158 165 159 158 161 159 163 164 166 171 173 179 176 173 174 178 173 176 174 177 177 176 181 174 168 169 157 166 175 172 172 176 174 168 187 178 162 162 162 164 178 179 172 176 180 185 195 185 173 200 216 208 223 183 181 215 254 264 269 285 289 293 328 326 342 353 342 356 329 330 287 60 61 166 150 148 164
166 166 162 165 164 162 162 165 164 167 153 163 163 158 163 163 166 170 173 176 174 178 175 181 181 175 172 176 176 177 183 171 169 161 165 171 178 180 180 177 183 175 188 168 167 163 174 178 186 179 176 180 187 184 187 180 182 199 212 210 227 206 210 222 248 255 264 254 216 299 287 316 329 349 339 324 319 326 133 43 327 307 105 165 147
173 169 162 166 166 163 164 164 162 166 150 164 162 161 165 164 168 172 174 180 176 183 173 177 178 187 165 177 175 181 176 147 158 159 166 181 186 178 183 174 182 181 181 174 169 174 174 181 190 195 183 186 187 195 188 180 180 195 222 220 230 196 206 221 228 267 282 291 280 271 276 265 289 308 293 299 299 306 7 158 198 142 169 175 124
176 171 161 169 166 170 163 163 158 165 154 168 159 161 167 166 171 171 175 182 179 186 172 172 178 190 172 177 177 176 180 157 162 174 176 183 197 185 177 170 177 184 171 174 178 178 180 176 195 193 205 190 185 191 197 168 190 193 219 230 220 182 197 219 237 243 253 262 265 248 256 269 264 250 246 266 288 316 65 185 190 204 221 220 195
204 169 168 167 171 176 164 164 161 166 162 167 159 161 167 166 169 172 174 182 180 186 171 168 176 188 173 174 172 172 177 173 178 177 186 190 194 191 169 179 179 178 164 175 181 188 171 188 196 200 199 196 190 188 191 181 185 193 204 223 226 205 200 211 226 236 240 247 255 258 251 244 246 254 244 229 251 288 275 225 249 237 221 233 209
331 186 171 170 170 177 162 165 162 164 166 168 162 163 165 166 169 170 175 181 181 177 168 169 174 186 171 173 173 175 175 180 186 180 186 201 198 177 179 176 181 185 178 188 185 185 179 185 209 197 200 178 181 192 195 180 182 188 203 217 232 185 198 213 220 225 230 228 233 238 246 241 238 219 242 267 274 273 281 288 253 231 221 247 235
49 230 175 173 171 177 169 163 163 165 165 163 162 165 163 167 168 170 176 179 183 167 167 177 176 181 174 173 180 176 178 182 185 185 190 206 198 161 169 178 190 191 185 193 200 180 178 180 199 175 170 180 183 184 190 196 199 202 203 214 226 233 222 216 227 242 240 222 231 230 236 241 264 285 287 238 239 249 252 237 271 295 242 240 236
179 34 90 172 180 167 158 157 154 164 164 160 153 154 156 165 167 169 171 175 181 156 170 172 175 175 179 177 184 183 181 186 196 182 187 196 192 169 166 184 179 188 162 185 195 203 175 185 179 184 177 184 190 198 201 214 208 206 212 214 214 221 219 213 223 226 239 244 250 253 256 252 259 248 249 240 241 256 245 270 280 285 290 238 230
205 148 108 53 177 161 160 159 156 154 152 154 149 145 150 156 158 166 168 169 174 155 169 171 171 175 180 183 181 192 191 182 191 201 183 185 185 174 172 188 172 172 180 184 171 173 158 180 183 174 184 175 184 196 202 212 227 224 206 204 216 223 226 224 222 229 229 228 228 229 232 234 231 226 226 232 239 244 245 254 245 252 255 10 4
308 265 101 118 199 146 155 152 146 138 146 140 138 143 150 155 154 155 165 159 173 154 167 171 173 173 183 185 183 187 194 176 177 191 213 193 177 175 183 180 181 173 170 182 154 192 162 169 189 173 216 184 186 192 197 205 210 229 197 201 231 236 229 233 242 244 243 233 225 225 232 233 230 228 222 226 213 219 199 197 198 158 133 110 239
225 209 147 134 205 148 150 147 131 114 117 128 109 84 70 70 121 116 152 162 161 150 163 171 172 176 183 185 183 181 180 179 174 185 202 197 162 189 185 182 184 177 175 176 170 169 159 130 196 173 215 184 174 183 190 193 204 211 209 225 219 231 238 240 253 257 251 249 259 270 260 241 226 226 227 223 224 216 215 225 235 186 187 182 255
354 343 88 153 184 155 151 135 109 95 107 117 117 110 102 95 68 38 26 26 11 142 159 172 176 179 180 182 181 183 182 180 149 179 192 205 166 104 135 194 181 180 182 172 150 157 170 192 194 207 201 187 174 167 10 320 237 190 208 219 219 227 232 234 230 255 282 289 293 293 296 322 319 310 274 240 223 222 208 200 197 189 194 208 238
19 332 1 4 117 117 82 68 63 76 84 80 125 131 125 117 115 98 85 94 79 16 325 182 169 152 172 174 174 180 178 171 143 123 105 84 82 93 90 78 189 213 188 176 171 181 187 190 196 202 206 147 79 29 5 360 317 262 231 209 220 240 235 217 214 222 243 263 273 293 305 309 322 6 25 27 12 307 253 230 188 188 182 186 216
190 41 40 352 21 40 44 54 80 92 94 98 85 88 129 148 150 151 145 146 140 145 221 299 144 134 125 150 170 171 164 142 101 78 62 74 77 71 61 61 49 33 23 43 72 120 108 5 184 101 69 76 72 26 20 17 11 344 269 239 235 230 220 213 273 331 331 315 304 293 284 288 65 61 52 28 11 11 348 286 274 256 219 217 208
98 138 169 114 91 49 29 34 39 56 85 104 90 104 160 190 166 162 161 110 98 89 140 236 186 132 123 110 96 92 100 93 96 96 72 40 26 32 39 53 67 40 34 50 54 69 74 77 89 100 91 75 73 25 22 27 20 15 358 335 268 214 155 131 103 40 343 1 356 353 19 44 46 34 29 14 14 354 347 332 280 264 264 228 229
61 66 35 97 113 115 106 82 45 34 40 42 66 112 172 195 180 175 140 125 148 181 190 180 171 154 144 117 113 122 126 137 142 133 119 115 85 58 342 352 37 43 46 39 57 83 92 98 102 101 95 82 71 13 19 28 29 12 354 341 324 2 61 51 35 26 47 69 61 49 52 58 44 34 22 7 3 354 339 351 351 294 268 285 266
74 60 55 77 91 82 51 33 41 54 48 43 16 3 68 164 176 192 165 151 167 171 178 179 181 170 137 132 125 119 126 130 115 105 90 77 131 168 196 135 74 62 84 41 30 80 103 111 118 119 113 92 55 19 24 22 16 4 346 307 316 43 38 31 358 52 89 71 61 59 83 88 58 37 23 5 3 347 344 2 10 9 348 333 1
63 66 58 66 73 83 61 27 13 41 59 58 8 330 1 43 72 65 48 50 58 99 156 206 185 97 92 113 142 143 139 135 130 131 141 156 190 211 172 140 127 140 164 116 70 52 63 95 101 105 106 96 70 40 40 32 19 4 349 330 15 63 45 13 43 72 82 73 55 51 82 85 72 54 11 357 355 338 354 13 7 348 347 5 86
65 70 79 78 81 87 94 84 51 37 40 47 62 9 25 38 33 30 55 50 50 39 24 17 36 14 49 90 98 127 139 135 141 145 144 150 159 158 119 117 121 152 169 125 115 96 86 91 97 103 103 93 72 34 41 39 29 14 8 3 12 5 53 77 94 96 92 94 90 76 78 93 79 54 10 355 349 349 8 17 358 0 351 332 24
57 61 73 80 75 68 68 72 70 58 52 47 43 52 58 60 60 57 60 58 60 50 32 22 28 33 24 34 50 60 52 37 73 112 115 103 94 87 84 93 106 118 97 93 100 90 77 91 103 100 100 94 82 45 42 35 32 19 9 3 333 22 61 68 85 117 115 86 77 84 89 86 80 51 8 354 353 344 7 359 337 336 318 304 327
84 76 70 75 84 91 85 73 72 72 68 70 69 65 67 63 64 72 71 65 60 57 49 51 51 38 44 47 30 70 73 74 47 33 71 102 96 93 97 139 132 110 102 97 103 103 98 88 97 105 105 101 99 71 53 42 33 22 10 347 334 319 172 208 147 137 120 108 78 63 66 66 75 43 14 2 3 3 341 330 332 310 304 312 41
95 85 88 80 78 85 88 87 85 87 92 90 89 87 80 73 68 70 64 56 47 56 65 67 65 60 53 48 37 46 65 45 40 61 38 46 90 104 166 177 153 128 125 119 105 103 105 97 93 97 98 98 94 71 55 53 43 32 13 343 320 12 30 15 139 131 113 105 92 76 55 54 57 51 30 12 13 20 4 324 328 346 353 341 346
117 111 110 100 83 72 78 86 86 90 87 89 91 86 84 82 75 68 58 43 27 34 61 70 67 68 60 56 63 44 56 82 89 110 149 145 147 159 174 123 132 121 115 106 107 101 94 88 76 88 103 106 114 104 88 87 81 58 29 29 43 24 3 0 13 50 42 87 88 78 89 64 45 33 39 17 10 5 359 329 327 354 7 297 306
101 104 97 100 112 120 119 109 99 90 89 91 91 87 87 83 78 70 62 56 45 30 47 67 69 67 62 56 55 62 57 56 56 59 47 84 130 149 138 125 113 119 117 118 123 128 118 114 127 130 117 120 117 117 108 60 59 74 68 62 63 11 285 90 44 58 101 97 97 87 45 26 26 32 18 7 350 353 334 315 301 310 320 344 344
88 74 68 76 76 83 88 87 84 84 84 88 93 94 93 91 87 90 79 57 61 56 43 62 61 52 50 46 49 55 55 57 51 47 41 43 43 54 76 94 110 107 115 125 147 136 134 141 145 111 106 121 101 105 115 113 79 66 59 55 40 31 21 59 70 72 65 54 48 53 58 41 352 336 334 334 331 324 324 297 295 313 313 316 318
89 96 101 97 90 81 77 81 85 83 82 71 78 87 92 98 109 127 106 98 74 54 57 63 82 86 75 64 42 34 70 65 57 61 48 37 45 46 36 31 73 109 102 111 131 137 141 149 139 121 127 86 74 74 60 65 85 72 55 48 44 45 45 58 59 57 47 35 11 349 328 286 271 264 295 327 317 308 284 288 294 291 297 297 285
120 122 113 99 99 100 100 91 87 92 73 67 67 87 85 80 77 100 109 103 99 86 57 52 67 96 110 126 116 115 111 84 107 122 125 124 118 96 50 11 48 71 83 82 65 105 167 154 146 142 125 110 91 69 46 36 45 66 56 49 45 45 47 52 55 38 31 12 336 322 318 321 317 324 329 329 302 289 284 282 286 290 292 285 282
147 148 130 116 113 112 107 102 86 79 74 73 76 88 95 96 80 68 59 79 83 79 57 4 23 71 119 164 197 208 162 151 173 5 37 74 66 71 67 46 35 53 61 53 32 31 18 67 157 140 127 103 76 57 39 25 20 39 43 43 46 40 38 40 43 25 5 355 350 341 338 337 333 324 323 297 275 261 275 283 287 290 289 272 280
167 140 120 127 127 125 122 119 115 105 99 94 93 91 111 114 106 102 92 95 90 92 112 103 42 59 38 50 51 231 171 86 87 140 109 76 69 58 64 67 62 60 55 57 55 36 35 39 47 68 76 70 58 44 34 26 17 24 26 27 31 29 26 26 25 7 359 352 336 338 322 305 291 293 287 270 263 261 259 283 345 327 326 44 69
98 91 83 76 76 82 93 99 100 102 109 123 128 119 132 100 88 84 82 94 118 129 122 120 91 88 78 50 55 63 68 62 69 66 72 81 67 72 76 60 42 49 81 78 61 50 52 56 67 77 81 74 63 51 37 26 18 16 22 27 33 36 31 20 10 356 340 326 326 324 331 332 328 323 325 345 345 20 71 29 20 24 53 57 55
105 93 85 91 85 81 82 85 90 99 113 112 113 113 115 122 131 122 104 93 104 120 116 110 101 97 52 59 86 89 82 69 64 65 56 33 33 64 82 66 21 5 75 98 89 79 69 69 73 66 86 96 72 59 42 34 49 34 31 33 34 24 10 17 13 329 322 335 348 351 348 338 331 313 29 35 39 35 37 42 44 48 59 54 43
75 88 92 88 87 95 93 89 82 73 75 83 93 117 115 110 111 113 112 108 115 91 96 93 81 66 38 39 82 107 110 98 87 87 87 70 46 38 17 85 104 22 39 67 100 115 126 100 86 57 22 80 112 132 127 146 224 144 73 74 99 94 29 358 337 316 271 332 345 342 334 329 328 30 48 49 52 50 38 31 29 41 56 58 44
71 91 91 100 94 82 69 56 39 34 36 28 40 56 95 119 133 145 131 134 142 105 86 80 80 76 58 56 72 90 109 117 126 119 102 98 85 43 37 32 36 35 43 72 85 99 103 114 117 112 60 52 92 130 159 197 181 65 85 101 95 67 49 8 4 11 13 8 340 339 329 334 351 55 59 56 54 56 51 52 39 42 54 55 47